OK1CMJ-5 Weather Reports


time (UTC)temp
C
wind
direction
speed
KPH
gust
KPH
rain 1hr
cm
rain 24hr
cm
rain mn
cm
humidity
%
barometer
mb
20260510130251 21 105 3.2 8.0 0.00 0.00 0.00 10 1013.2
20260510125348 21 110 3.2 9.7 0.00 0.00 0.00 10 1013.4
20260510124450 21 314 3.2 8.0 0.00 0.00 0.00 10 1013.2
20260510123551 21 86 3.2 9.7 0.00 0.00 0.00 10 1013.5
20260510122648 22 69 3.2 11.3 0.00 0.00 0.00 10 1013.8
20260510121752 21 6 3.2 8.0 0.00 0.00 0.00 10 1013.9
20260510120848 21 77 3.2 12.9 0.00 0.00 0.00 10 1014.0
20260510115948 21 40 4.8 12.9 0.00 0.00 0.00 10 1013.8
20260510115048 21 40 4.8 12.9 0.00 0.00 0.00 10 1013.9
20260510114148 21 319 3.2 9.7 0.00 0.00 0.00 10 1014.1
20260510113248 21 250 1.6 8.0 0.00 0.00 0.00 10 1014.4
20260510112348 21 336 3.2 11.3 0.00 0.00 0.00 10 1014.5
20260510111448 21 323 3.2 9.7 0.00 0.00 0.00 10 1014.7
20260510110548 21 154 3.2 11.3 0.00 0.00 0.00 10 1014.9
20260510105648 21 51 3.2 12.9 0.00 0.00 0.00 10 1014.8
20260510104748 20 104 3.2 8.0 0.00 0.00 0.00 10 1015.0
20260510103848 20 104 3.2 12.9 0.00 0.00 0.00 10 1015.2
20260510102948 20 125 3.2 11.3 0.00 0.00 0.00 12 1015.3
20260510102048 20 126 4.8 12.9 0.00 0.00 0.00 12 1015.4
20260510101148 20 114 3.2 8.0 0.00 0.00 0.00 13 1015.3
20260510100248 20 99 3.2 6.4 0.00 0.00 0.00 12 1015.4
20260510095348 20 133 3.2 9.7 0.00 0.00 0.00 13 1015.7
20260510094448 20 140 1.6 8.0 0.00 0.00 0.00 14 1015.5
20260510093548 19 111 3.2 8.0 0.00 0.00 0.00 16 1015.7
20260510092648 19 117 1.6 12.9 0.00 0.00 0.00 16 1015.7
20260510091748 19 149 6.4 12.9 0.00 0.00 0.00 15 1015.8
20260510085948 18 95 3.2 8.0 0.00 0.00 0.00 18 1016.1
20260510085048 19 64 1.6 6.4 0.00 0.00 0.00 15 1016.1
20260510084148 18 174 0.0 12.9 0.00 0.00 0.00 17 1016.4
20260510083248 18 129 1.6 12.9 0.00 0.00 0.00 17 1016.3
20260510082348 18 228 1.6 8.0 0.00 0.00 0.00 15 1016.3
20260510081448 18 199 3.2 8.0 0.00 0.00 0.00 17 1016.4
20260510080548 18 325 3.2 6.4 0.00 0.00 0.00 17 1016.5
20260510075648 18 321 1.6 4.8 0.00 0.00 0.00 17 1016.6
20260510074748 17 181 3.2 6.4 0.00 0.00 0.00 18 1016.7
20260510073848 17 263 3.2 8.0 0.00 0.00 0.00 18 1016.7
20260510072948 17 7 1.6 8.0 0.00 0.00 0.00 18 1016.7
20260510072048 16 253 1.6 8.0 0.00 0.00 0.00 20 1016.8
20260510071148 16 297 1.6 6.4 0.00 0.00 0.00 23 1017.0
20260510070248 15 310 0.0 9.7 0.00 0.00 0.00 24 1017.0
20260510065348 15 146 1.6 8.0 0.00 0.00 0.00 23 1017.0
20260510064448 16 154 3.2 8.0 0.00 0.00 0.00 22 1017.0
20260510061748 15 330 1.6 6.4 0.00 0.00 0.00 27 1017.2
20260510060848 16 314 0.0 3.2 0.00 0.00 0.00 28 1017.6
20260510055948 15 80 0.0 4.8 0.00 0.00 0.00 36 1017.4
20260510055048 14 120 3.2 6.4 0.00 0.00 0.00 35 1017.5
20260510053248 14 1 3.2 4.8 0.00 0.00 0.00 38 1017.7
20260510052347 14 1 1.6 3.2 0.00 0.00 0.00 46 1017.8
20260510051447 13 353 0.0 3.2 0.00 0.00 0.00 63 1017.9
20260510050548 13 314 1.6 3.2 0.00 0.00 0.00 82 1017.8
20260510045648 12 0 0.0 0.0 0.00 0.00 0.00 99 1017.8
20260510044748 10 314 0.0 1.6 0.00 0.00 0.00 99 1017.8
20260510043848 8 314 0.0 1.6 0.00 0.00 0.00 99 1017.7
20260510042947 7 314 0.0 1.6 0.00 0.00 0.00 99 1017.9
20260510042047 6 314 0.0 1.6 0.00 0.00 0.00 99 1017.8
20260510041147 5 314 0.0 1.6 0.00 0.00 0.00 99 1017.7
20260510040247 3 0 0.0 0.0 0.00 0.00 0.00 97 1017.7
20260510034447 2 1 0.0 1.6 0.00 0.00 0.00 94 1017.8
20260510033548 1 1 0.0 1.6 0.00 0.00 0.00 93 1017.8
20260510032647 1 1 0.0 1.6 0.00 0.00 0.00 93 1017.8
20260510031747 2 0 0.0 0.0 0.00 0.00 0.00 92 1017.9
20260510030848 2 1 0.0 1.6 0.00 0.00 0.00 92 1017.9
20260510025948 2 1 0.0 1.6 0.00 0.00 0.00 92 1018.0
20260510025047 2 1 0.0 1.6 0.00 0.00 0.00 91 1018.0
20260510023247 2 1 0.0 1.6 0.00 0.00 0.00 91 1018.1
20260510021447 2 1 0.0 1.6 0.00 0.00 0.00 90 1018.0
20260510015648 2 0 0.0 0.0 0.00 0.00 0.00 89 1017.9
20260510014747 2 0 0.0 0.0 0.00 0.00 0.00 89 1018.2
20260510013848 2 331 0.0 1.6 0.00 0.00 0.00 89 1018.2
20260510012047 2 1 0.0 1.6 0.00 0.00 0.00 88 1018.3
20260510011147 2 314 0.0 1.6 0.00 0.00 0.00 88 1018.5
20260510010247 2 335 0.0 3.2 0.00 0.00 0.00 86 1018.6
20260510005347 2 349 0.0 1.6 0.00 0.00 0.00 86 1018.6
20260510004447 3 234 0.0 3.2 0.00 0.00 0.00 86 1018.6
20260510003548 3 225 0.0 3.2 0.00 0.00 0.00 85 1018.6
20260510001747 3 225 0.0 1.6 0.00 0.00 0.00 84 1018.6
20260510000847 3 225 0.0 1.6 0.00 0.00 0.00 84 1018.8
20260509235948 3 225 0.0 1.6 0.00 0.00 0.00 83 1018.9
20260509235047 3 221 0.0 3.2 0.00 0.00 0.00 83 1019.0
20260509234147 3 225 0.0 3.2 0.00 0.00 0.00 82 1019.2
20260509233247 3 225 0.0 1.6 0.00 0.00 0.00 82 1019.3
20260509232347 3 225 0.0 3.2 0.00 0.00 0.00 82 1019.4
20260509231447 3 225 0.0 3.2 0.00 0.00 0.00 81 1019.5
20260509230547 3 225 0.0 3.2 0.00 0.00 0.00 79 1019.6
20260509224748 3 225 0.0 3.2 0.00 0.00 0.00 78 1019.7
20260509223847 4 225 0.0 1.6 0.00 0.00 0.00 77 1019.8
20260509222947 4 225 0.0 3.2 0.00 0.00 0.00 77 1019.7
20260509222047 4 225 0.0 3.2 0.00 0.00 0.00 76 1019.7
20260509221147 4 314 0.0 1.6 0.00 0.00 0.00 75 1019.7
20260509220247 5 314 0.0 3.2 0.00 0.00 0.00 74 1019.6
20260509215347 5 315 0.0 3.2 0.00 0.00 0.00 74 1019.7
20260509214447 5 315 0.0 3.2 0.00 0.00 0.00 73 1019.6
20260509213547 5 314 0.0 3.2 0.00 0.00 0.00 72 1019.7
20260509212647 5 314 0.0 3.2 0.00 0.00 0.00 71 1019.7
20260509211747 5 314 0.0 3.2 0.00 0.00 0.00 70 1019.8
20260509210848 5 314 0.0 3.2 0.00 0.00 0.00 69 1020.1
20260509205947 5 314 0.0 1.6 0.00 0.00 0.00 68 1019.9
20260509205047 6 335 0.0 3.2 0.00 0.00 0.00 68 1019.9
20260509204147 6 338 0.0 3.2 0.00 0.00 0.00 67 1019.9
20260509203247 6 325 0.0 3.2 0.00 0.00 0.00 66 1019.9
20260509201447 6 314 0.0 3.2 0.00 0.00 0.00 66 1019.7
20260509200547 7 314 0.0 3.2 0.00 0.00 0.00 62 1019.8
20260509195647 7 315 0.0 3.2 0.00 0.00 0.00 61 1019.9
20260509194747 7 314 0.0 3.2 0.00 0.00 0.00 55 1019.7
20260509192047 9 9 0.0 3.2 0.00 0.00 0.00 45 1019.8
20260509191147 10 90 0.0 1.6 0.00 0.00 0.00 44 1019.6
20260509190247 10 90 0.0 3.2 0.00 0.00 0.00 42 1019.4
20260509184447 11 135 0.0 3.2 0.00 0.00 0.00 40 1019.2
20260509183547 11 0 0.0 0.0 0.00 0.00 0.00 38 1019.2
20260509182647 11 135 0.0 3.2 0.00 0.00 0.00 37 1018.9
20260509180848 12 135 0.0 3.2 0.00 0.00 0.00 35 1019.0
20260509175948 13 135 0.0 6.4 0.00 0.00 0.00 34 1018.8
20260509175048 13 255 3.2 6.4 0.00 0.00 0.00 33 1019.0
20260509174147 13 44 1.6 6.4 0.00 0.00 0.00 32 1018.9
20260509173247 14 61 3.2 9.7 0.00 0.00 0.00 31 1018.9
20260509171447 15 26 1.6 11.3 0.00 0.00 0.00 27 1019.0
20260509170547 15 21 1.6 12.9 0.00 0.00 0.00 25 1019.2
20260509165647 16 61 3.2 11.3 0.00 0.00 0.00 23 1019.0
20260509164747 17 111 3.2 12.9 0.00 0.00 0.00 20 1018.9
20260509161147 17 1 3.2 9.7 0.00 0.00 0.00 23 1019.2
20260509160247 16 358 3.2 14.5 0.00 0.00 0.00 23 1019.3
20260509154447 18 64 3.2 12.9 0.00 0.00 0.00 17 1019.3
20260509153547 19 95 6.4 14.5 0.00 0.00 0.00 16 1019.2
20260509152647 19 70 4.8 11.3 0.00 0.00 0.00 15 1019.3
20260509151747 18 97 6.4 11.3 0.00 0.00 0.00 18 1019.1
20260509150847 16 314 1.6 4.8 0.00 0.00 0.00 26 1019.2
20260509145947 16 308 1.6 8.0 0.00 0.00 0.00 26 1019.1
20260509145047 17 28 3.2 6.4 0.00 0.00 0.00 21 1019.1
20260509144147 18 15 4.8 11.3 0.00 0.00 0.00 20 1019.1
20260509143247 18 49 4.8 11.3 0.00 0.00 0.00 20 1019.1
20260509142347 17 74 0.0 8.0 0.00 0.00 0.00 21 1019.4
20260509141447 17 105 0.0 8.0 0.00 0.00 0.00 22 1019.4
20260509140547 18 80 3.2 9.7 0.00 0.00 0.00 20 1019.4
20260509135647 19 80 3.2 9.7 0.00 0.00 0.00 19 1019.5
20260509134747 18 86 1.6 12.9 0.00 0.00 0.00 20 1019.5
20260509133847 18 84 3.2 14.5 0.00 0.00 0.00 22 1019.4
20260509132947 18 65 3.2 16.1 0.00 0.00 0.00 21 1019.6
20260509132047 19 332 8.0 14.5 0.00 0.00 0.00 21 1019.7
20260509131147 18 351 1.6 6.4 0.00 0.00 0.00 20 1019.9